Torna al catalogo

CZ-4C DEB

AttivoPO
NORAD 38297·DEBRIS·🇨🇳 China

Lanciato Nov 4, 2010 da Taiyuan Satellite Launch Center

Loading…

Prossimi Passaggi (prossime 24 ore)

TLE

AggiornatoSource: Space-Track

Epoca: Sep 13, 2026, 12:51 UTC

1 38297U 10059G   26256.53597992  .00000240  00000-0  22365-3 0  9991
2 38297  98.7454 153.4422 0236708 158.0810 203.0675 13.78382472790406

Traccia CZ-4C DEB in tempo reale con AllMySat

Download on the App Store